CW1309 Weather Reports


Display with metric or nautical units.
time (UTC)temp
F
wind
direction
speed
MPH
gust
MPH
rain 1hr
in
rain 24hr
in
rain mn
in
humidity
%
barometer
mb
20260503010030 72 32 2.0 5.0 0.00 0.01 0.00 65 1021.0
20260503004531 73 9 2.0 4.0 0.00 0.01 0.00 63 1021.1
20260503003044 73 31 3.0 6.0 0.00 0.01 0.00 63 1020.9
20260503001533 74 68 2.0 5.0 0.00 0.01 0.00 62 1021.1
20260503000028 74 68 5.0 10.0 0.00 0.01 0.00 62 1021.0
20260502234527 74 55 4.0 9.0 0.00 0.01 0.00 61 1020.9
20260502233027 74 355 4.0 11.0 0.00 0.01 0.00 62 1020.9
20260502231527 74 333 2.0 11.0 0.00 0.01 0.00 62 1020.8
20260502230026 74 58 5.0 13.0 0.00 0.01 0.00 61 1020.8
20260502224533 75 53 6.0 11.0 0.00 0.02 0.00 62 1020.6
20260502223024 74 70 10.0 14.0 0.00 0.02 0.00 62 1020.6
20260502221523 75 71 8.0 15.0 0.00 0.02 0.00 62 1020.9
20260502220027 74 45 7.0 15.0 0.00 0.02 0.00 62 1020.9
20260502214519 74 11 5.0 13.0 0.00 0.04 0.00 63 1021.0
20260502213020 74 45 9.0 17.0 0.00 0.04 0.00 62 1021.2
20260502211518 73 91 9.0 18.0 0.00 0.04 0.00 63 1021.3
20260502210016 74 317 7.0 14.0 0.00 0.04 0.00 63 1021.6
20260502203015 73 80 7.0 15.0 0.00 0.04 0.00 62 1022.0
20260502201514 73 334 10.0 17.0 0.00 0.04 0.00 62 1022.1
20260502200020 73 43 8.0 17.0 0.00 0.04 0.00 62 1022.4
20260502194511 72 21 7.0 15.0 0.00 0.05 0.00 64 1022.3
20260502193020 72 52 6.0 15.0 0.00 0.05 0.00 66 1022.5
20260502191508 71 26 9.0 16.0 0.00 0.05 0.00 67 1022.5
20260502190006 71 51 11.0 16.0 0.00 0.05 0.00 68 1022.8
20260502184504 70 57 6.0 14.0 0.00 0.21 0.00 69 1022.9
20260502183003 70 16 5.0 15.0 0.00 0.21 0.00 69 1023.1
20260502181507 69 61 10.0 16.0 0.00 0.21 0.00 69 1023.3
20260502163051 66 5 8.0 15.0 0.00 0.23 0.00 74 1024.4
20260502161548 65 71 9.0 15.0 0.00 0.23 0.00 75 1024.2
20260502151534 63 11 4.0 14.0 0.00 0.35 0.00 80 1023.6
20260502123005 52 5 4.0 12.0 0.00 0.56 0.00 96 1022.0
20260502121503 51 348 4.0 9.0 0.00 0.56 0.00 96 1021.7
20260502114626 51 350 4.0 8.0 0.00 0.83 0.00 96 1021.6
20260502113115 51 5 3.0 5.0 0.00 0.83 0.00 96 1021.6
20260502111605 52 349 1.0 3.0 0.00 0.83 0.00 95 1021.5
20260502110103 52 343 1.0 3.0 0.00 0.83 0.00 96 1021.3
20260502104552 52 5 4.0 8.0 0.00 1.30 0.00 96 1020.9
20260502103109 52 348 4.0 9.0 0.00 1.30 0.00 96 1020.6
20260502101553 52 342 5.0 10.0 0.00 1.30 0.00 96 1020.3
20260502070031 53 5 3.0 12.0 0.00 1.74 0.00 93 1019.2
20260502064535 53 24 5.0 10.0 0.00 2.11 0.00 93 1019.1
20260502063027 53 19 5.0 13.0 0.00 2.11 0.00 92 1018.8
20260502061525 53 360 7.0 14.0 0.00 2.11 0.00 92 1019.1
20260502060023 53 42 6.0 15.0 0.00 2.11 0.00 92 1019.2
20260502054522 54 5 4.0 16.0 0.01 2.11 0.00 92 1019.1
20260502053019 54 25 6.0 17.0 0.01 2.11 0.00 92 1019.0
20260502051519 55 47 8.0 17.0 0.01 2.11 0.00 93 1019.0
20260502050017 55 355 11.0 17.0 0.01 2.11 0.00 94 1018.8
20260502044512 55 43 9.0 17.0 0.00 2.10 2.10 94 1018.8
20260502043109 56 355 8.0 14.0 0.00 2.10 2.10 94 1018.7
20260502041509 56 5 7.0 16.0 0.00 2.10 2.10 95 1018.7
20260502040008 56 5 10.0 17.0 0.00 2.10 2.10 95 1018.5
20260502034504 56 360 9.0 17.0 0.00 2.10 2.10 96 1018.4
20260502033006 56 49 8.0 17.0 0.00 2.10 2.10 96 1018.1
20260502031559 56 30 7.0 15.0 0.00 2.10 2.10 97 1017.7
20260502030107 56 28 7.0 19.0 0.00 2.10 2.10 97 1017.7
20260502024556 57 331 8.0 17.0 0.00 2.10 2.10 97 1017.5
20260502023101 57 11 4.0 14.0 0.00 2.10 2.10 97 1017.5
20260502021556 57 28 11.0 18.0 0.00 2.10 2.10 96 1017.2
20260502020051 57 13 9.0 19.0 0.00 2.10 2.10 95 1016.8
20260502014548 57 5 8.0 18.0 0.00 2.10 2.10 95 1016.7
20260502013053 57 31 7.0 19.0 0.00 2.10 2.10 95 1016.4
20260502011547 57 360 8.0 16.0 0.00 2.10 2.10 95 1016.2